Location: Shenandoah County Park
(38.9356°N, 78.4524°W)
Time: 06:34:09
(UTC-04:00)

Vanguard 1 Rocket - Pass Details

Date: 09 February 2023
Orbit: 652 x 4223 km, 34.3° (Epoch: 26 March)

Event Time Altitude Azimuth Distance (km) Brightness Sun altitude
Rises 10:13:13 0° 226° (SW) 3,450 10.5 27.9°
Reaches altitude 10° 10:15:24 10° 218° (SW) 2,738 10.1 28.1°
Maximum altitude 10:21:33 41° 149° (SSE) 1,921 11.2 28.8°
Drops below altitude 10° 10:32:35 10° 85° (E) 4,887 11.6 30.0°
Sets 10:37:56 0° 80° (E) 6,516 12.0 30.6°
